Find PRSC-EO1

NORAD ID: 62726 Int'l Des: NNA 2025-012 Owner: SUPA Country: PK operational
LEOCIRCULARRETROGRADESSO

当前视图

正在加载3D地球...

About PRSC-EO1

PRSC-EO1 (NORAD 62726) is a satellite launched Jan 17, 2025 by SUPA of PK. It operates in LEO, CIRCULAR, RETROGRADE, SSO orbit with a mass of 500.00 kg.

即将过境

Passes for default location (London). Set your location on the main map for personalized predictions.

高度历史

Loading altitude history...

两行轨道根数

1 62726U 25012B 26194.64108892 .00002738 00000-0 12491-3 0 9993
2 62726 97.4228 267.3377 0009270 173.5481 186.5876 15.21440382 82279
Epoch: Jul 13, 2026 • Age: 10 hours

当前状态

高度 510.8 km
远地点 / 近地点 N/A
速度 7.61 km/s
星下点 33.82°N, 44.25°W
发射日期 Jan 17, 2025
运行时间 1.4 years
类型 other

技术详情

分类 Payload
质量 500.00 kg
干质量 500.00 kg
总质量 500.00 kg
长度 2.00 m
直径 1.50 m
跨度 8.00 m
形状 Box + 2 Pan
制造商 SUPA
平台类型 PRSC-EO
阶段状态 In Orbit
所有者/国家 SUPA/PK

Most Searched